West Palm Beach, FL

9:07 AM EST on November 20, 2019 (GMT -0500)
Palm Beach International

Weather History for KPBI - October, 2019

Change the Weather History Date:

Sunday, October 13, 2019

  Actual Average Record
Temperature  
Mean Temperature 81 °F 79 °F  
Max Temperature 85 °F 86 °F 91 °F (1990)
Min Temperature 77 °F 73 °F 61 °F (1977)
Degree Days  
Heating Degree Days 0 0  
Month to date heating degree days 0 0  
Since 1 July heating degree days 0 0  
Cooling Degree Days 16 14  
Month to date cooling degree days 219 193  
Year to date cooling degree days 3928 3401  
Growing Degree Days 30 (Base 50)    
Moisture  
Dew Point 69 °F    
Average Humidity 66    
Maximum Humidity 74    
Minimum Humidity 58    
Precipitation  
Precipitation 0.00 in 0.16 in 3.60 in (1922)
Month to date precipitation 4.16 2.47  
Year to date precipitation 49.51 51.54  
Snow  
Snow 0.00 in - - ()
Month to date snowfall 0.0  
Since 1 July snowfall 0.0  
Since 1 September snowfall 0.0  
Snow Depth 0.00 in    
Sea Level Pressure  
Sea Level Pressure 30.02 in    
Wind  
Wind Speed 11 mph (East)    
Max Wind Speed 16 mph    
Max Gust Speed 20 mph    
Visibility 10 miles    
Events      
T = Trace of Precipitation, MM = Missing Value Source: NWS Daily Summary

Daily Weather History Graph

Daily Weather History Graph

Search for Another Location

Airport or City:

Astronomy

Oct. 13, 2019 Rise Set
Actual Time 7:18 AM EDT 6:54 PM EDT
Civil Twilight 6:55 AM EDT 7:17 PM EDT
Nautical Twilight 6:28 AM EDT 7:44 PM EDT
Astronomical Twilight 6:01 AM EDT 8:11 PM EDT
Moon 7:10 PM EDT (10/13) 6:59 AM EDT (10/13)
Length of Visible Light 12h 22m
Length of Day
11h 35m
Full, 100% of the Moon is Illuminated
Oct 13
Full
Oct 13
Full
Oct 21
Last Quarter
Oct 27
New
Nov 4
First Quarter

Hourly Weather History & Observations

Time (EDT) Temp. Heat Index Dew Point Humidity Pressure Visibility Wind Dir Wind Speed Gust Speed Precip Events Conditions
12:53 AM 78.1 °F - 64.9 °F 64% 30.02 in 10.0 mi East 13.8 mph - N/A   Clear
1:53 AM 78.1 °F - 63.0 °F 60% 30.01 in 10.0 mi East 10.4 mph - N/A   Clear
2:53 AM 78.1 °F - 64.9 °F 64% 30.00 in 10.0 mi East 10.4 mph - N/A   Clear
3:53 AM 77.0 °F - 66.9 °F 71% 29.99 in 10.0 mi East 8.1 mph - N/A   Partly Cloudy
4:53 AM 78.1 °F - 66.0 °F 66% 29.98 in 10.0 mi East 6.9 mph - N/A   Partly Cloudy
5:53 AM 77.0 °F - 66.9 °F 71% 29.99 in 10.0 mi East 8.1 mph - N/A   Partly Cloudy
6:53 AM 78.1 °F - 69.1 °F 74% 30.00 in 10.0 mi East 8.1 mph - N/A   Scattered Clouds
7:53 AM 78.1 °F - 69.1 °F 74% 30.01 in 10.0 mi East 9.2 mph - N/A   Scattered Clouds
8:53 AM 81.0 °F 84.4 °F 70.0 °F 69% 30.01 in 10.0 mi East 12.7 mph - N/A   Scattered Clouds
9:53 AM 82.9 °F 87.0 °F 70.0 °F 65% 30.03 in 10.0 mi East 12.7 mph - N/A   Scattered Clouds
10:53 AM 82.9 °F 87.0 °F 70.0 °F 65% 30.04 in 10.0 mi East 13.8 mph - N/A   Mostly Cloudy
11:53 AM 82.0 °F 85.9 °F 70.0 °F 67% 30.05 in 10.0 mi East 11.5 mph - N/A   Mostly Cloudy
12:53 PM 82.0 °F 85.9 °F 70.0 °F 67% 30.04 in 10.0 mi East 12.7 mph - N/A   Mostly Cloudy
1:15 PM 82.9 °F 87.5 °F 71.1 °F 67% 30.03 in 10.0 mi East 15.0 mph - N/A   Mostly Cloudy
1:53 PM 82.9 °F 87.0 °F 70.0 °F 65% 30.02 in 10.0 mi East 12.7 mph - N/A   Mostly Cloudy
2:53 PM 82.0 °F 85.9 °F 70.0 °F 67% 30.01 in 10.0 mi East 13.8 mph - N/A   Mostly Cloudy
3:53 PM 82.9 °F 87.0 °F 70.0 °F 65% 30.00 in 10.0 mi East 12.7 mph - N/A   Mostly Cloudy
4:53 PM 81.0 °F 84.1 °F 69.1 °F 67% 30.01 in 10.0 mi East 12.7 mph - N/A   Mostly Cloudy
5:53 PM 81.0 °F 84.4 °F 70.0 °F 69% 30.01 in 10.0 mi East 12.7 mph - N/A   Mostly Cloudy
6:53 PM 81.0 °F 84.1 °F 69.1 °F 67% 30.01 in 10.0 mi East 12.7 mph - N/A   Mostly Cloudy
7:53 PM 81.0 °F 84.1 °F 69.1 °F 67% 30.02 in 10.0 mi East 10.4 mph - N/A   Mostly Cloudy
8:53 PM 81.0 °F 84.4 °F 70.0 °F 69% 30.04 in 10.0 mi East 6.9 mph - N/A   Mostly Cloudy
9:53 PM 80.1 °F 83.2 °F 70.0 °F 71% 30.04 in 10.0 mi East 11.5 mph - N/A   Mostly Cloudy
10:53 PM 79.0 °F - 69.1 °F 72% 30.04 in 10.0 mi ESE 9.2 mph - N/A   Partly Cloudy
11:53 PM 79.0 °F - 70.0 °F 74% 30.04 in 10.0 mi ESE 5.8 mph - N/A   Mostly Cloudy